Weather in Princeton

Canada     49°27′32″N   120°30′32″W
temp.,
°C
wind,
m/s
gust,
m/s
humid.,
%
clouds,
%
prec.,
mm/h
press.,
hPa
HPBL,
m
7 august, sun
sun723:00+11sse11540 0.0 101911
02:00+9ese01600 0.0 102010
05:00+8e11640 0.0 102110
08:00+15ne01430 0.0 1020176
11:00+27nne01240 0.0 1016610
14:00+32ne14180 0.0 10142595
17:00+31wnw45160 0.0 10122424
20:00+21nw22400 0.0 101314
8 august, mon
mon823:00+13sw01660 0.0 101611
02:00+11e00820 0.0 101611
05:00+9sse00900 0.0 101710
08:00+15e00600 0.0 1017199
11:00+26n02270 0.0 1014833
14:00+32wnw24133 0.0 10102553
17:00+31wnw45140 0.0 10092243
20:00+21nw22320 0.0 101114
9 august, tue
tue923:00+13ssw11530 0.0 101511
02:00+11ene01650 0.0 101511
05:00+10e00720 0.0 101610
08:00+16n005150 0.0 1015180
11:00+27nnw0025100 0.0 1012519
14:00+32ne121769 0.0 10101290
17:00+31s3420100 0.0 10091329
20:00+24ese22395 0.0 101017
10 august, wed
wed1023:00+16sse11562 0.0 101411
02:00+15e0060100 0.0 101411
05:00+13sse00663 0.0 101510
08:00+18ene0049100 0.0 1014168
11:00+28w112785 0.0 1011564
14:00+33se132198 0.2 10092563
17:00+31e132636 0.2 10071812
20:00+19w347422 0.3 1012129
11 august, thu
thu1123:00+13wsw11987 0.9 101713
02:00+12wsw119826 0.0 101714
05:00+12nne009755 0.2 101726
08:00+15n018753 0.1 1017282
11:00+22wnw125432 0.1 10151096
14:00+26wnw44400 0.0 10131666
17:00+27w443530 0.1 10111762
20:00+18wnw11593 0.2 101412